カタログに戻る

PSLV DEB

運用中SSO
NORAD 27305·DEBRIS·🇮🇳 India

打ち上げ Oct 22, 2001 から Satish Dhawan Space Centre

Loading…

次のパス (今後24時間)

TLE

最新Source: Space-Track

元期: Sep 14, 2026, 15:37 UTC

1 27305U 01049KB  26257.65137049  .00000985  00000-0  13561-3 0  9999
2 27305  98.2002 320.7855 0037250 200.6958 320.2906 14.80209727326673

AllMySatでPSLV DEBをリアルタイム追跡

Download on the App Store